CW8078 Weather Reports


time (UTC)temp
C
wind
direction
speed
KPH
gust
KPH
rain 1hr
cm
rain 24hr
cm
rain mn
cm
humidity
%
barometer
mb
20260505130303 9 34 0.0 1.6 0.00 1.07 1.07 89 1007.1
20260505124803 9 22 0.0 1.6 0.00 1.07 1.07 90 1007.1
20260505124303 9 12 0.0 0.0 0.00 1.07 1.07 90 1007.4
20260505123804 9 337 0.0 0.0 0.00 1.07 1.07 89 1007.4
20260505121803 9 23 0.0 1.6 0.00 1.07 1.07 89 1007.4
20260505121303 9 329 0.0 0.0 0.03 1.07 1.07 89 1007.2
20260505120802 9 346 0.0 3.2 0.05 1.07 1.07 90 1007.3
20260505120303 9 316 0.0 4.8 0.08 1.07 1.07 90 1007.4
20260505114804 8 337 0.0 4.8 0.13 1.07 1.07 88 1006.4
20260505114302 8 17 0.0 3.2 0.18 1.07 1.07 89 1006.0
20260505113802 8 2 0.0 3.2 0.23 1.07 1.07 88 1005.8
20260505113303 8 49 1.6 16.1 0.25 1.07 1.07 88 1005.5
20260505111803 9 46 0.0 14.5 0.33 1.07 1.07 88 1005.8
20260505111303 9 352 0.0 1.6 0.36 1.04 1.04 90 1006.4
20260505110803 9 313 0.0 4.8 0.38 1.02 1.02 90 1005.1
20260505110303 9 357 0.0 4.8 0.38 0.99 0.99 90 1005.7
20260505101803 10 356 0.0 22.5 0.30 0.74 0.74 87 1007.1
20260505101303 10 312 0.0 20.9 0.25 0.69 0.69 88 1006.8
20260505100803 10 324 0.0 4.8 0.20 0.64 0.64 88 1007.1
20260505100302 10 325 0.0 9.7 0.18 0.61 0.61 86 1007.1
20260505094803 11 312 1.6 16.1 0.13 0.56 0.56 85 1006.2
20260505094303 11 341 0.0 4.8 0.10 0.53 0.53 88 1005.7
20260505093303 11 22 0.0 11.3 0.03 0.43 0.43 86 1005.7
20260505091803 11 345 1.6 12.9 0.03 0.43 0.43 82 1004.9
20260505091303 12 10 0.0 8.0 0.03 0.43 0.43 83 1004.5
20260505090803 12 334 0.0 19.3 0.03 0.43 0.43 82 1004.4
20260505090303 12 10 1.6 29.0 0.05 0.43 0.43 80 1004.4
20260505084803 13 337 0.0 4.8 0.36 0.43 0.43 85 1004.3
20260505084303 13 315 3.2 16.1 0.36 0.43 0.43 85 1003.9
20260505083803 13 12 0.0 16.1 0.38 0.43 0.43 88 1003.9
20260505083303 14 354 0.0 12.9 0.38 0.41 0.41 88 1003.9
20260505081803 14 10 0.0 1.6 0.41 0.41 0.41 86 1003.6
20260505081303 14 343 0.0 4.8 0.41 0.41 0.41 85 1003.5
20260505080303 15 345 0.0 20.9 0.38 0.38 0.38 84 1003.3
20260505074803 16 293 0.0 3.2 0.08 0.08 0.08 85 1003.1
20260505074303 16 354 0.0 0.0 0.08 0.08 0.08 85 1003.0
20260505073803 17 31 0.0 0.0 0.05 0.05 0.05 83 1002.7
20260505073303 17 31 0.0 0.0 0.03 0.03 0.03 81 1002.7
20260505071803 18 321 0.0 0.0 0.00 0.00 0.00 74 1002.5
20260505070803 20 343 0.0 0.0 0.00 0.00 0.00 73 1002.4
20260505070303 20 343 0.0 0.0 0.00 0.00 0.00 70 1002.4
20260505064803 20 343 0.0 0.0 0.00 0.00 0.00 70 1002.5
20260505064303 20 343 0.0 0.0 0.00 0.00 0.00 68 1002.5
20260505063803 20 343 0.0 0.0 0.00 0.00 0.00 68 1002.4
20260505063302 20 343 0.0 0.0 0.00 0.00 0.00 68 1002.4
20260505061803 20 14 0.0 0.0 0.00 0.00 0.00 68 1003.1
20260505060803 20 283 0.0 0.0 0.00 0.00 0.00 69 1002.7
20260505054803 21 165 0.0 0.0 0.00 0.00 0.00 66 1001.6
20260505054303 21 165 0.0 0.0 0.00 0.00 0.00 65 1001.5
20260505053804 21 165 0.0 0.0 0.00 0.00 0.00 65 1001.5
20260505051803 21 138 0.0 0.0 0.00 0.00 0.00 64 1001.5
20260505051303 21 138 0.0 0.0 0.00 0.00 0.00 64 1001.3
20260505050303 21 150 0.0 0.0 0.00 0.00 0.00 64 1001.3
20260505041303 21 171 0.0 0.0 0.00 0.00 0.00 62 1000.8
20260505040803 22 171 0.0 0.0 0.00 0.00 0.00 62 1000.6
20260505040303 22 171 0.0 3.2 0.00 0.00 0.00 62 1000.5
20260505034803 21 173 0.0 0.0 0.00 0.00 0.00 63 1001.0
20260505033803 21 193 0.0 0.0 0.00 0.00 0.00 64 1001.3
20260505033303 21 193 0.0 1.6 0.00 0.00 0.00 64 1001.3
20260505031804 21 193 0.0 0.0 0.00 0.00 0.00 64 1001.3
20260505030803 21 193 0.0 0.0 0.00 0.00 0.00 65 1001.4
20260505030303 21 193 0.0 0.0 0.00 0.00 0.00 65 1001.4
20260505024803 21 193 0.0 0.0 0.00 0.00 0.00 64 1001.3
20260505024303 21 193 0.0 1.6 0.00 0.00 0.00 65 1001.3
20260505023303 21 193 0.0 0.0 0.00 0.00 0.00 66 1001.2
20260505021803 21 193 0.0 0.0 0.00 0.00 0.00 65 1001.0
20260505020803 22 193 0.0 0.0 0.00 0.00 0.00 64 1000.8
20260505020303 22 193 0.0 0.0 0.00 0.00 0.00 64 1000.7
20260505014803 22 193 0.0 0.0 0.00 0.00 0.00 61 1000.5
20260505014304 22 193 0.0 0.0 0.00 0.00 0.00 60 1000.4
20260505013803 23 193 0.0 0.0 0.00 0.00 0.00 59 1000.3
20260505013303 23 193 0.0 3.2 0.00 0.00 0.00 59 1000.2
20260505011303 23 198 0.0 1.6 0.00 0.00 0.00 58 1000.0
20260505010303 23 198 0.0 1.6 0.00 0.00 0.00 56 1000.0
20260505003803 25 145 0.0 0.0 0.00 0.00 0.00 54 999.8
20260505003303 25 128 0.0 1.6 0.00 0.00 0.00 53 999.7
20260505001803 25 223 0.0 0.0 0.00 0.00 0.00 52 999.8
20260505001303 25 221 0.0 0.0 0.00 0.00 0.00 52 999.8
20260504234803 26 218 0.0 1.6 0.00 0.00 0.00 50 999.5
20260504234303 26 182 0.0 0.0 0.00 0.00 0.00 50 999.5
20260504233804 26 172 0.0 4.8 0.00 0.00 0.00 49 999.5
20260504233303 26 189 0.0 8.0 0.00 0.00 0.00 50 999.5
20260504231803 26 211 0.0 3.2 0.00 0.00 0.00 49 999.5
20260504231303 26 185 0.0 0.0 0.00 0.00 0.00 49 999.6
20260504230303 26 195 0.0 9.7 0.00 0.00 0.00 48 999.5
20260504223803 27 184 1.6 9.7 0.00 0.00 0.00 47 999.5
20260504223303 27 196 0.0 8.0 0.00 0.00 0.00 47 999.5
20260504221803 27 215 0.0 0.0 0.00 0.00 0.00 49 999.5
20260504221303 27 196 0.0 0.0 0.00 0.00 0.00 48 999.5
20260504220804 27 188 0.0 0.0 0.00 0.00 0.00 48 999.6
20260504214803 27 225 0.0 4.8 0.00 0.00 0.00 48 999.6
20260504214303 27 200 1.6 16.1 0.00 0.00 0.00 47 999.7
20260504213803 27 181 3.2 12.9 0.00 0.00 0.00 48 999.6
20260504213303 27 193 1.6 12.9 0.00 0.00 0.00 48 999.7
20260504211804 27 203 1.6 12.9 0.00 0.00 0.00 48 999.8
20260504210804 27 209 0.0 4.8 0.00 0.00 0.00 48 999.8
20260504210304 27 203 0.0 8.0 0.00 0.00 0.00 49 999.9
20260504204803 26 191 0.0 9.7 0.00 0.00 0.00 48 1000.0
20260504203804 26 218 0.0 0.0 0.00 0.00 0.00 49 1000.0
20260504201803 27 194 1.6 8.0 0.00 0.00 0.00 47 1000.2
20260504201303 27 214 1.6 8.0 0.00 0.00 0.00 48 1000.2
20260504200803 27 208 0.0 1.6 0.00 0.00 0.00 48 1000.3
20260504200303 27 225 0.0 8.0 0.00 0.00 0.00 49 1000.3
20260504194803 27 200 1.6 9.7 0.00 0.00 0.00 47 1000.5
20260504194303 27 180 0.0 1.6 0.00 0.00 0.00 47 1000.6
20260504193804 27 207 0.0 4.8 0.00 0.00 0.00 47 1000.7
20260504193304 27 213 0.0 9.7 0.00 0.00 0.00 46 1000.8
20260504191803 27 210 0.0 4.8 0.00 0.00 0.00 48 1000.9
20260504191303 26 206 0.0 4.8 0.00 0.00 0.00 48 1000.9
20260504190803 26 191 1.6 9.7 0.00 0.00 0.00 46 1000.9
20260504190303 26 191 0.0 11.3 0.00 0.00 0.00 50 1000.9
20260504184803 27 204 0.0 8.0 0.00 0.00 0.00 48 1001.2
20260504184303 27 213 0.0 4.8 0.00 0.00 0.00 50 1001.2
20260504183803 27 212 0.0 4.8 0.00 0.00 0.00 50 1001.2
20260504183304 26 188 0.0 12.9 0.00 0.00 0.00 54 1001.2
20260504181804 25 171 0.0 1.6 0.00 0.00 0.00 52 1001.3
20260504181304 25 164 0.0 0.0 0.00 0.00 0.00 56 1001.4
20260504180803 25 180 0.0 0.0 0.00 0.00 0.00 58 1001.5
20260504180303 24 161 0.0 1.6 0.00 0.00 0.00 58 1001.6
20260504174803 23 145 0.0 0.0 0.00 0.00 0.00 66 1001.9
20260504174303 22 153 0.0 1.6 0.00 0.00 0.00 67 1001.8
20260504173803 21 252 0.0 0.0 0.00 0.00 0.00 79 1001.9
20260504173303 20 208 0.0 3.2 0.00 0.00 0.00 84 1001.9
20260504171303 19 140 0.0 0.0 0.00 0.00 0.00 71 1001.9
20260504170803 19 198 0.0 0.0 0.00 0.00 0.00 74 1002.4
20260504170303 20 198 0.0 0.0 0.00 0.00 0.00 76 1002.4
20260504150803 18 173 0.0 4.8 0.00 0.00 0.00 69 1002.8
20260504150303 18 166 0.0 1.6 0.00 0.00 0.00 72 1002.9
20260504141302 15 155 0.0 0.0 0.00 0.00 0.00 80 1003.4
20260504140802 15 155 0.0 0.0 0.00 0.00 0.00 84 1003.4